Wind_Speed
9 9 9 10 10 12 13 13 14 15 16 19 20 22 24 26 27 28 28 29 29 30 30 30 29 30 31 32 32 33 33 33 33 33 33 33 33 34 34 34 34 34 33 34
10 10 10 10 10 11 12 12 13 14 15 17 19 21 22 24 25 26 27 28 29 29 29 29 29 29 30 30 31 31 32 32 32 32 32 33 34 34 34 35 35 35 35 35
11 11 11 10 10 10 11 12 12 14 15 17 19 20 21 22 23 24 26 27 28 28 28 28 28 29 29 30 30 31 31 32 32 32 32 33 34 35 36 35 35 35 35 36
12 11 11 11 11 11 11 12 12 12 14 16 18 20 21 21 22 23 24 26 27 28 28 29 29 29 29 29 30 31 31 32 33 34 34 34 35 36 37 37 36 36 36 36
12 11 11 12 12 12 12 12 11 11 12 14 17 19 20 22 23 23 24 25 26 27 27 27 28 29 29 30 30 31 31 33 34 35 35 35 36 37 37 37 37 37 37 37
13 12 12 12 13 13 13 13 13 12 12 13 15 18 19 20 22 22 23 23 25 25 26 27 27 28 29 30 31 31 32 33 34 34 36 36 36 37 37 36 37 38 38 39
13 13 13 13 12 12 13 13 14 15 15 14 15 17 18 18 19 21 21 22 23 25 26 27 28 28 29 30 31 32 33 33 34 34 35 36 36 38 38 38 38 39 40 40
14 14 14 14 13 13 13 13 14 16 16 15 15 16 16 17 18 20 21 22 24 25 26 27 28 29 30 31 31 32 33 34 34 35 36 37 37 38 39 40 40 40 42 42
16 15 15 15 14 14 13 14 15 16 17 17 16 16 17 17 18 19 21 23 24 26 27 28 28 29 30 31 32 32 33 34 35 36 37 37 38 38 39 40 41 41 43 44
17 17 17 17 16 15 15 15 15 16 18 18 17 16 16 17 19 21 22 23 25 26 27 29 30 30 31 32 32 32 33 34 35 35 36 38 39 40 40 40 41 42 43 44
18 18 18 18 17 17 16 16 16 17 18 18 18 17 17 18 19 21 22 24 26 27 27 28 30 30 31 32 32 32 33 33 34 34 36 38 39 41 42 42 43 44 44 43
20 20 19 19 19 18 18 18 18 19 19 19 20 19 18 19 20 22 23 25 26 27 28 29 29 30 31 32 33 34 34 34 35 36 37 38 39 41 42 43 44 44 44 43
22 21 21 21 21 20 20 20 20 21 22 21 21 20 20 20 22 23 23 24 25 26 27 28 30 31 32 33 33 34 35 36 36 36 37 38 39 40 41 42 43 44 44 44
24 23 23 23 23 22 22 22 22 23 24 23 22 21 21 22 22 23 24 24 25 26 27 28 29 30 31 32 33 33 34 35 36 36 36 37 38 39 40 42 43 43 43 43
25 25 24 24 24 24 23 23 24 24 24 25 23 22 22 23 24 25 25 25 26 27 27 28 29 30 31 32 32 33 34 34 35 37 37 38 38 39 40 41 42 42 42 42
26 26 25 25 25 26 24 24 25 25 25 25 25 24 24 25 26 26 27 27 28 28 28 29 30 31 31 32 33 34 35 35 36 37 38 39 39 40 40 40 41 41 41 41
27 28 28 27 27 27 25 25 25 25 25 26 26 26 27 27 28 28 28 29 29 30 30 31 32 32 33 34 34 35 36 37 37 38 38 39 40 40 40 40 40 40 39 40
29 29 30 30 28 28 26 26 27 27 27 28 28 28 29 30 30 30 31 31 31 31 32 32 33 34 34 35 36 36 37 37 38 38 38 39 39 39 40 40 40 39 39 40
31 31 32 32 32 31 28 28 29 29 29 29 30 30 31 31 32 31 33 33 33 34 34 34 35 36 36 37 37 37 38 38 38 38 38 39 39 39 39 39 39 39 39 40
32 32 33 33 34 33 32 31 31 32 32 32 33 33 33 33 33 33 34 35 36 36 36 36 37 37 38 38 38 38 38 39 39 39 39 39 39 38 38 38 38 39 39 39
34 34 34 34 35 35 34 34 34 34 34 34 35 35 35 35 35 36 36 37 37 37 38 38 38 38 39 39 40 39 40 40 40 40 39 39 38 38 39 38 38 38 38 38
36 36 36 36 36 35 35 35 35 35 36 37 37 37 37 37 37 37 38 38 38 38 39 39 40 40 40 41 41 41 41 41 40 39 38 38 38 37 37 37 37 38 38 38
38 38 38 37 37 36 36 37 37 38 38 38 38 38 38 38 38 38 38 39 39 39 40 40 41 41 41 41 42 41 41 40 39 38 38 38 37 37 37 37 37 37 37 38
40 39 40 39 39 38 38 39 39 39 40 39 39 39 39 39 39 39 39 38 39 39 40 41 41 41 41 41 41 40 40 39 38 38 38 38 37 37 36 36 37 37 37 38
41 41 41 41 40 40 40 41 41 41 41 41 40 40 40 40 40 40 40 39 39 39 40 41 41 41 41 40 39 39 39 39 38 38 38 37 37 37 37 37 37 37 37 37
41 42 42 42 41 42 42 42 43 43 42 42 42 41 41 41 40 40 39 39 40 40 40 40 40 40 39 38 38 38 39 39 38 37 37 36 37 37 37 36 36 36 37 37
Wind_Direction
321 311 307 299 288 282 274 268 263 256 251 247 241 239 239 240 238 238 239 238 238 240 244 246 247 248 249 250 251 252 253 253 254 255 256 258 259 260 261 262 265 266 269 271
319 315 315 307 296 285 277 272 263 254 251 247 239 238 239 242 242 241 241 241 241 243 245 247 248 250 250 252 252 252 252 253 254 256 257 259 260 261 262 263 265 266 269 270
319 317 315 311 305 293 281 278 266 259 256 251 244 239 238 240 242 243 242 242 243 244 246 247 249 251 252 253 253 253 253 254 255 256 258 260 262 263 264 266 267 269 269 270
322 319 313 310 306 299 289 282 273 268 263 256 250 243 240 242 243 244 245 245 245 246 248 249 251 251 252 253 253 254 255 255 256 258 259 261 263 264 265 266 267 269 269 271
324 321 314 306 301 298 293 286 279 275 270 264 258 252 245 245 247 248 249 249 247 245 247 249 251 253 254 254 254 254 256 257 258 259 261 263 264 264 266 267 268 268 269 272
318 319 315 308 300 296 295 289 278 273 273 268 262 257 253 251 251 251 251 251 248 246 248 249 252 254 255 256 256 256 257 259 260 261 262 264 264 264 266 268 269 269 270 272
315 314 314 313 308 299 294 288 282 278 276 273 266 259 256 252 251 250 250 251 251 250 251 252 254 255 256 258 259 260 260 261 262 263 263 265 265 266 266 268 270 272 272 273
314 312 313 311 307 302 295 287 285 284 280 276 270 262 256 252 251 252 251 253 254 254 255 255 256 257 258 259 261 262 263 263 263 264 266 267 267 268 268 269 270 272 272 272
308 307 307 305 301 298 295 290 285 284 281 279 274 269 263 257 253 254 254 256 256 256 257 258 259 260 261 262 264 265 265 265 266 268 269 270 270 271 270 271 272 273 274 275
305 304 303 299 295 292 292 289 285 285 283 281 275 272 271 266 262 261 261 261 261 261 261 261 261 262 263 265 266 267 268 268 269 270 271 272 273 273 273 273 274 276 278 278
303 301 300 297 293 290 289 288 287 285 283 282 279 277 276 270 265 264 263 263 263 263 263 262 263 264 265 267 268 269 271 271 271 271 273 273 274 274 274 275 276 278 279 279
299 298 296 294 291 287 285 284 284 284 283 282 281 282 278 273 269 268 268 268 267 265 264 265 266 266 267 268 269 270 271 272 271 272 273 274 275 276 276 277 278 279 279 280
296 296 295 293 290 286 283 281 281 281 281 281 281 283 280 276 273 272 271 271 271 270 268 269 269 270 270 270 271 271 272 272 273 274 275 275 276 277 278 279 279 279 279 279
294 293 292 292 290 288 285 282 281 280 280 280 281 280 279 278 276 274 273 274 274 273 272 272 271 272 272 273 273 274 274 274 275 275 276 277 278 279 280 280 281 280 279 279
294 292 291 290 289 288 287 284 282 282 282 283 282 280 279 277 276 275 275 276 276 275 274 274 274 274 275 275 275 276 276 277 277 277 277 278 280 280 281 281 281 280 278 278
292 292 291 290 288 288 287 284 283 283 283 283 281 280 280 279 278 277 277 277 276 276 275 276 276 277 277 277 278 278 278 278 279 279 278 279 280 282 282 282 281 281 279 278
289 290 290 289 288 287 287 286 284 283 282 282 282 281 279 279 280 280 280 279 278 277 276 277 278 279 279 279 280 279 280 280 280 280 280 280 281 283 283 282 282 281 280 279
286 287 287 287 288 288 289 287 285 284 282 281 281 281 280 280 281 282 281 280 279 279 280 280 280 280 280 280 280 281 281 281 281 281 282 282 282 283 283 283 282 281 280 280
284 285 285 286 287 289 287 286 286 284 282 281 281 282 282 282 282 282 282 281 280 279 279 280 280 281 281 281 282 282 282 282 282 282 282 282 283 283 282 282 281 281 281 281
283 282 283 284 285 287 287 286 285 283 283 282 282 282 283 283 283 282 281 281 280 280 280 281 280 281 282 282 283 283 283 282 282 283 283 283 283 282 282 283 282 282 282 282
282 282 282 283 284 285 287 286 285 284 284 283 283 283 284 284 284 283 282 282 281 280 280 280 281 281 282 283 283 283 283 283 283 284 284 284 283 283 283 284 283 283 283 282
281 281 281 281 282 285 285 284 283 283 283 284 284 284 284 283 284 284 283 282 281 281 281 281 281 282 283 284 284 284 284 283 283 284 284 284 283 283 283 284 284 284 284 284
279 279 279 280 282 283 283 283 283 283 283 284 284 284 283 283 283 284 284 284 283 283 283 282 283 283 283 284 284 284 284 284 283 283 284 283 283 282 283 284 285 285 285 285
278 277 277 278 280 281 281 281 281 281 282 283 284 284 283 284 284 284 284 284 284 284 284 283 284 284 284 284 284 284 284 283 283 283 283 282 282 282 283 284 285 286 286 286
277 277 277 277 279 279 278 279 279 279 281 282 283 284 283 283 283 284 284 284 284 284 285 285 285 285 285 285 284 284 283 283 283 283 282 282 282 282 283 285 286 287 287 287
277 277 277 277 278 278 279 278 278 279 280 281 282 282 283 284 284 284 284 284 284 285 286 286 285 285 285 285 284 284 284 284 283 282 282 282 283 283 283 285 286 286 286 286
Height
5707 5706 5704 5703 5703 5702 5702 5702 5703 5704 5704 5705 5707 5709 5712 5714 5717 5720 5723 5726 5730 5733 5735 5738 5741 5743 5746 5748 5750 5752 5754 5755 5757 5758 5760 5762 5763 5764 5765 5766 5766 5767 5767 5767
5707 5706 5704 5702 5701 5700 5700 5700 5701 5702 5702 5703 5704 5706 5708 5710 5713 5716 5718 5721 5724 5728 5730 5733 5735 5738 5739 5742 5743 5745 5746 5748 5749 5751 5753 5754 5755 5756 5757 5758 5758 5759 5759 5759
5706 5705 5703 5701 5700 5699 5699 5699 5699 5699 5700 5700 5702 5703 5705 5707 5709 5712 5714 5716 5719 5722 5725 5728 5730 5732 5733 5735 5737 5738 5740 5741 5742 5744 5745 5746 5747 5748 5749 5749 5750 5750 5750 5750
5705 5704 5702 5700 5699 5698 5698 5698 5697 5697 5697 5698 5700 5700 5702 5704 5706 5708 5710 5713 5715 5717 5720 5722 5724 5726 5727 5729 5730 5731 5733 5734 5736 5737 5738 5739 5740 5740 5741 5741 5741 5741 5741 5741
5705 5703 5701 5699 5698 5697 5697 5696 5695 5695 5695 5696 5696 5698 5700 5701 5703 5705 5707 5708 5710 5712 5714 5716 5718 5720 5721 5722 5723 5724 5725 5727 5728 5729 5731 5731 5732 5732 5732 5732 5733 5733 5732 5732
5704 5702 5700 5698 5696 5695 5694 5694 5694 5693 5693 5694 5694 5695 5697 5697 5699 5701 5702 5704 5706 5708 5709 5711 5712 5714 5715 5716 5716 5717 5718 5719 5720 5721 5722 5722 5723 5723 5723 5723 5724 5723 5723 5723
5703 5701 5698 5696 5695 5694 5692 5692 5692 5691 5690 5691 5691 5691 5693 5694 5695 5696 5698 5699 5701 5702 5704 5706 5707 5708 5708 5709 5710 5711 5711 5712 5712 5713 5713 5714 5714 5714 5714 5715 5715 5714 5714 5713
5701 5699 5697 5695 5693 5692 5690 5690 5690 5689 5688 5688 5688 5688 5690 5690 5691 5692 5693 5695 5696 5698 5699 5699 5700 5701 5702 5703 5703 5703 5704 5704 5704 5705 5705 5705 5705 5705 5705 5705 5705 5704 5704 5703
5698 5697 5695 5693 5691 5690 5688 5687 5687 5686 5685 5685 5685 5686 5686 5686 5687 5688 5689 5690 5691 5692 5693 5694 5694 5695 5695 5696 5696 5696 5696 5696 5696 5696 5697 5696 5696 5696 5696 5696 5695 5695 5694 5693
5695 5694 5692 5690 5689 5687 5686 5685 5684 5683 5681 5681 5682 5682 5683 5682 5683 5683 5684 5684 5685 5686 5687 5687 5688 5688 5688 5688 5689 5689 5688 5688 5688 5688 5688 5687 5687 5687 5686 5686 5685 5685 5684 5683
5692 5691 5689 5687 5686 5684 5683 5683 5681 5679 5678 5677 5677 5681 5679 5678 5678 5678 5678 5678 5679 5680 5680 5680 5681 5681 5681 5681 5681 5681 5680 5680 5680 5679 5679 5678 5678 5677 5677 5676 5675 5674 5673 5672
5688 5687 5685 5684 5682 5680 5679 5678 5677 5676 5675 5674 5673 5677 5674 5673 5672 5672 5672 5672 5672 5673 5673 5673 5673 5674 5673 5673 5673 5673 5672 5672 5671 5671 5670 5669 5669 5668 5667 5666 5665 5664 5663 5661
5684 5682 5681 5680 5680 5677 5675 5673 5672 5671 5670 5669 5669 5672 5668 5667 5666 5666 5666 5666 5666 5666 5666 5666 5666 5666 5665 5665 5664 5664 5664 5663 5663 5662 5661 5660 5659 5658 5657 5656 5654 5653 5652 5650
5679 5678 5677 5675 5673 5671 5670 5669 5667 5665 5664 5664 5664 5665 5663 5661 5660 5660 5660 5660 5659 5659 5659 5658 5658 5657 5657 5656 5656 5655 5655 5654 5653 5652 5651 5650 5649 5648 5646 5645 5643 5642 5640 5639
5673 5672 5671 5669 5667 5665 5664 5663 5661 5660 5659 5658 5658 5658 5658 5655 5654 5654 5653 5653 5652 5652 5651 5651 5650 5649 5649 5648 5647 5646 5645 5644 5644 5643 5641 5640 5639 5637 5635 5634 5632 5630 5629 5627
5667 5666 5665 5664 5661 5659 5658 5657 5655 5654 5653 5652 5651 5651 5650 5649 5648 5647 5646 5646 5645 5644 5644 5643 5642 5641 5640 5639 5639 5637 5636 5635 5634 5632 5631 5629 5628 5626 5624 5622 5621 5619 5617 5616
5661 5659 5658 5657 5655 5653 5653 5652 5649 5648 5647 5646 5644 5645 5642 5641 5640 5640 5639 5638 5638 5637 5636 5635 5634 5633 5631 5630 5629 5628 5627 5625 5623 5622 5620 5619 5617 5615 5613 5611 5609 5607 5606 5604
5654 5652 5650 5648 5648 5646 5649 5645 5643 5641 5640 5638 5637 5636 5635 5634 5633 5632 5631 5630 5629 5628 5627 5626 5625 5623 5622 5621 5619 5618 5616 5614 5613 5611 5609 5607 5606 5604 5602 5600 5598 5596 5594 5593
5646 5644 5642 5640 5638 5638 5640 5637 5634 5633 5632 5631 5629 5628 5627 5625 5625 5624 5622 5621 5620 5619 5618 5616 5615 5614 5612 5610 5609 5607 5605 5603 5602 5600 5598 5596 5594 5593 5591 5589 5587 5585 5583 5581
5638 5636 5635 5632 5630 5629 5632 5628 5625 5625 5624 5622 5620 5619 5618 5616 5616 5616 5613 5611 5610 5609 5607 5606 5605 5603 5601 5599 5597 5596 5594 5592 5590 5589 5587 5585 5583 5581 5579 5577 5575 5573 5571 5569
5629 5627 5626 5623 5620 5621 5622 5618 5617 5616 5615 5612 5610 5609 5608 5607 5606 5605 5603 5601 5600 5598 5597 5595 5594 5592 5590 5588 5586 5585 5583 5581 5579 5577 5575 5573 5571 5569 5567 5565 5564 5562 5560 5558
5619 5617 5616 5614 5612 5614 5611 5609 5607 5606 5603 5602 5600 5599 5598 5597 5595 5594 5592 5590 5589 5587 5586 5584 5582 5581 5579 5577 5574 5573 5571 5569 5567 5566 5564 5562 5560 5558 5556 5554 5552 5550 5548 5546
5608 5608 5605 5605 5605 5603 5600 5598 5596 5595 5593 5592 5590 5589 5588 5586 5585 5584 5582 5580 5578 5576 5575 5573 5571 5570 5568 5565 5563 5561 5559 5557 5556 5554 5552 5550 5548 5546 5544 5542 5540 5538 5536 5535
5597 5596 5594 5593 5594 5592 5589 5587 5585 5584 5582 5581 5580 5578 5577 5575 5574 5572 5571 5569 5567 5566 5563 5561 5559 5558 5556 5554 5551 5549 5547 5545 5544 5543 5541 5539 5537 5535 5534 5532 5530 5528 5526 5524
5586 5583 5582 5581 5582 5579 5579 5576 5574 5572 5571 5570 5569 5567 5565 5564 5562 5561 5559 5558 5556 5554 5552 5550 5548 5546 5544 5542 5540 5537 5536 5534 5533 5531 5530 5528 5526 5524 5523 5521 5519 5517 5515 5512
5574 5571 5570 5569 5569 5566 5566 5565 5562 5561 5560 5558 5557 5556 5554 5552 5550 5549 5547 5546 5544 5542 5540 5538 5536 5535 5533 5531 5529 5527 5524 5523 5521 5520 5518 5517 5515 5513 5512 5510 5508 5506 5504 5502